Location: Kuppenheim
(48.8299°N, 8.2568°E)
Time: 10:26:41
(UTC+00:00)

USA 308 - Pass Details

Date: 20 June 2021
Orbit: 566 x 576 km, 54.0° (Epoch: 13 July)

Event Time Altitude Azimuth Distance (km) Brightness Sun altitude
Exits shadow 00:51:58 24° 170° (S) 1,183 4.0 -15.4°
Maximum altitude 00:53:19 29° 137° (SE) 1,042 4.0 -15.3°
Drops below altitude 10° 00:57:00 10° 76° (ENE) 1,865 6.0 -15.1°
Sets 00:59:27 0° 66° (ENE) 2,765 7.1 -14.9°
